Location: Doughton Park
(36.4224°N, 81.1835°W)
Time: 09:41:06
(UTC-04:00)

Amateur Radio Satellites - All Passes

Search period start: 01 September 2014 09:11
Search period end: 02 September 2014 09:11
Location: Doughton Park, 36.4224°N, 81.1835°W

Satellite Date Start Highest point End Downlink Frequencies (MHz)
Time Altitude Azimuth
JAS-2 01 Sep 09:12:23 09:14:27 12° 297° (WNW) 09:16:33 435.800 - 435.900 CW/SSB, 435.910 FM
UKube-1 01 Sep 09:41:47 09:42:45 11° 92° (E) 09:43:43 145.840 MHz, 145.915 MHz
RS-15 01 Sep 10:12:23 10:22:03 34° 317° (NW) 10:31:44 29.354 - 29.394 USB, Beacon 29.352 USB
HO-68 01 Sep 10:20:57 10:28:04 65° 103° (ESE) 10:35:10 435.675 MHz FM
ISS 01 Sep 10:34:43 10:38:01 69° 320° (NW) 10:41:20 145.800 FM
KITSAT 1 01 Sep 10:56:20 11:02:33 25° 256° (WSW) 11:08:45 435.175 FM
UKube-1 01 Sep 11:15:00 11:19:16 56° 286° (WNW) 11:23:30 145.840 MHz, 145.915 MHz
Oscar 11 01 Sep 11:19:17 11:23:39 78° 284° (WNW) 11:28:00 145.825 FM, Beacon 2401.500 USB
AO-40 01 Sep 11:21:37 11:49:15 20° 211° (SSW) 11:56:50 Beacon 2401.320
SO-50 01 Sep 11:30:50 11:32:42 12° 43° (NE) 11:34:33 436.795 FM
FUNcube-1 01 Sep 11:49:23 11:53:58 87° 103° (ESE) 11:58:34 145.950 - 145.970 MHz USB
PANSAT 01 Sep 11:54:51 11:57:39 19° 168° (SSE) 12:00:27 not established
HO-68 01 Sep 12:09:53 12:15:09 23° 300° (WNW) 12:20:25 435.675 MHz FM
ISS 01 Sep 12:13:51 12:15:16 12° 338° (NNW) 12:16:42 145.800 FM
RS-15 01 Sep 12:34:23 12:39:21 14° 351° (N) 12:44:21 29.354 - 29.394 USB, Beacon 29.352 USB
Oscar 19 01 Sep 12:50:15 12:52:32 13° 62° (ENE) 12:54:48 437.125 CW, 437.150 USB
SO-50 01 Sep 13:09:07 13:13:56 86° 60° (ENE) 13:18:48 436.795 FM
MaSat-1 01 Sep 13:12:29 13:17:12 60° 110° (ESE) 13:22:17 437.345 MHz
UOSAT-12 01 Sep 13:21:08 13:22:52 12° 42° (NE) 13:24:35 437.025 FM, 437.400 FM
Oscar 16 01 Sep 13:23:00 13:27:22 29° 68° (ENE) 13:31:45 437.025 USB, Beacon 2401.1428
ITAMSAT 1 01 Sep 13:26:46 13:28:54 13° 62° (ENE) 13:31:02 435.822 SSB
PANSAT 01 Sep 13:34:07 13:37:20 25° 181° (S) 13:40:32 not established
Uribyol 2 01 Sep 13:35:07 13:38:16 17° 64° (ENE) 13:41:25 436.500 FM
JAS-1B 01 Sep 13:53:28 14:02:08 39° 66° (ENE) 14:10:00 435.800 - 435.900 CW/SSB
AO-27 01 Sep 13:54:01 13:58:07 24° 67° (ENE) 14:02:12 436.795 MHz FM
Oscar 19 01 Sep 14:26:04 14:31:12 72° 258° (WSW) 14:36:24 437.125 CW, 437.150 USB
Gurwin Techsat 1B 01 Sep 14:32:04 14:36:17 25° 67° (ENE) 14:40:31 435.225 FM
Oscar 10/S400 01 Sep 14:36:45 14:50:17 14° 154° (SSE) 15:00:04 145.825 - 145.975 CW/USB, Beacon 145.810 USB
AO-Echo 01 Sep 14:39:19 14:44:21 74° 75° (ENE) 14:49:14 ?
RS-15 01 Sep 14:50:32 14:58:11 20° 29° (NNE) 15:05:57 29.354 - 29.394 USB, Beacon 29.352 USB
MaSat-1 01 Sep 14:51:23 14:54:40 17° 307° (NW) 14:58:02 437.345 MHz
UOSAT-12 01 Sep 14:58:59 15:03:43 87° 60° (ENE) 15:08:22 437.025 FM, 437.400 FM
Oscar 16 01 Sep 15:02:06 15:06:36 30° 263° (W) 15:11:08 437.025 USB, Beacon 2401.1428
ITAMSAT 1 01 Sep 15:02:34 15:07:44 74° 257° (WSW) 15:12:54 435.822 SSB
Uribyol 2 01 Sep 15:12:13 15:17:15 55° 259° (W) 15:22:19 436.500 FM
PANSAT 01 Sep 15:14:24 15:16:59 17° 194° (SSW) 15:19:34 not established
TMSAT-1 01 Sep 15:21:20 15:26:26 53° 73° (ENE) 15:31:35 436.925 FM
AO-27 01 Sep 15:32:40 15:37:24 36° 262° (W) 15:42:09 436.795 MHz FM
Uosat F 01 Sep 15:34:49 15:36:48 12° 62° (ENE) 15:38:47 435.120 FM
AO-7 01 Sep 15:38:54 15:45:54 31° 60° (ENE) 15:52:52 29.400 - 29.500 MHz
Sapphire 01 Sep 15:40:02 15:40:31 10° 101° (ESE) 15:40:59 437.095 MHz 1200 baud AX-25 AFSK
JAS-1B 01 Sep 15:42:48 15:52:18 52° 260° (W) 16:00:58 435.800 - 435.900 CW/SSB
PCSat 01 Sep 16:05:20 16:09:25 22° 106° (ESE) 16:13:31 145.825 MHz
Gurwin Techsat 1B 01 Sep 16:11:10 16:16:01 37° 262° (W) 16:20:55 435.225 FM
AO-Echo 01 Sep 16:22:58 16:23:31 10° 269° (W) 16:24:04 ?
RS-15 01 Sep 17:02:12 17:13:15 65° 56° (NE) 17:24:43 29.354 - 29.394 USB, Beacon 29.352 USB
TMSAT-1 01 Sep 17:03:22 17:06:38 17° 267° (W) 17:09:55 436.925 FM
OPAL 01 Sep 17:03:25 17:07:21 21° 96° (E) 17:11:13 ?
ISS 01 Sep 17:05:42 17:08:55 45° 37° (NE) 17:12:08 145.800 FM
Uosat F 01 Sep 17:09:57 17:14:56 71° 258° (WSW) 17:19:57 435.120 FM
Sapphire 01 Sep 17:17:43 17:23:07 85° 296° (WNW) 17:28:33 437.095 MHz 1200 baud AX-25 AFSK
AO-7 01 Sep 17:30:04 17:38:12 56° 257° (WSW) 17:46:22 29.400 - 29.500 MHz
JAS-2 01 Sep 17:35:32 17:40:10 24° 68° (ENE) 17:44:28 435.800 - 435.900 CW/SSB, 435.910 FM
PCSat 01 Sep 17:47:21 17:52:29 44° 302° (WNW) 17:57:40 145.825 MHz
Hamsat 01 Sep 18:35:47 18:40:05 84° 77° (ENE) 18:44:28 145.90 MHz
OPAL 01 Sep 18:41:26 18:46:20 42° 291° (WNW) 18:51:11 ?
ISS 01 Sep 18:43:22 18:45:22 15° 232° (SW) 18:47:21 145.800 FM
STRAND 1 01 Sep 18:52:44 18:53:47 11° 91° (E) 18:54:50 ?
Sapphire 01 Sep 19:05:01 19:07:20 13° 315° (NW) 19:09:41 437.095 MHz 1200 baud AX-25 AFSK
RS-15 01 Sep 19:15:28 19:24:53 33° 255° (WSW) 19:34:40 29.354 - 29.394 USB, Beacon 29.352 USB
JAS-2 01 Sep 19:19:11 19:25:03 43° 260° (W) 19:30:22 435.800 - 435.900 CW/SSB, 435.910 FM
SO-67 01 Sep 19:40:02 19:43:26 60° 76° (ENE) 19:46:52 435.3500 MHz FM
STRAND 1 01 Sep 20:28:21 20:33:27 74° 285° (WNW) 20:38:32 ?
HO-68 01 Sep 20:47:01 20:53:26 38° 66° (ENE) 20:59:51 435.675 MHz FM
UKube-1 01 Sep 22:07:42 22:12:03 89° 76° (ENE) 22:16:24 145.840 MHz, 145.915 MHz
Oscar 11 01 Sep 22:11:36 22:15:51 58° 75° (ENE) 22:20:08 145.825 FM, Beacon 2401.500 USB
AO-40 01 Sep 22:28:56 05:01:39 47° 172° (S) 06:48:07 Beacon 2401.320
HO-68 01 Sep 22:34:32 22:41:02 38° 262° (W) 22:47:34 435.675 MHz FM
Saudisat 1A 01 Sep 22:42:36 22:47:00 90° 298° (WNW) 22:51:26 436.775 MHz
FUNcube-1 01 Sep 22:43:32 22:47:33 48° 74° (ENE) 22:51:40 145.950 - 145.970 MHz USB
MaSat-1 01 Sep 23:09:42 23:14:08 75° 65° (ENE) 23:17:53 437.345 MHz
KITSAT 1 01 Sep 23:24:42 23:32:38 63° 113° (ESE) 23:40:36 435.175 FM
Oscar 11 01 Sep 23:51:55 23:52:22 10° 269° (W) 23:52:49 145.825 FM, Beacon 2401.500 USB
FUNcube-1 02 Sep 00:22:49 00:24:14 12° 269° (W) 00:25:40 145.950 - 145.970 MHz USB
Saudisat 1A 02 Sep 00:26:05 00:27:13 11° 317° (NW) 00:28:20 436.775 MHz
PCSat 02 Sep 00:56:18 00:58:42 13° 45° (NE) 01:01:05 145.825 MHz
KITSAT 1 02 Sep 01:21:39 01:28:31 30° 312° (NW) 01:35:26 435.175 FM
Oscar 16 02 Sep 01:39:11 01:41:00 12° 91° (E) 01:42:49 437.025 USB, Beacon 2401.1428
Sapphire 02 Sep 02:08:23 02:13:35 44° 58° (ENE) 02:18:44 437.095 MHz 1200 baud AX-25 AFSK
PCSat 02 Sep 02:37:27 02:42:55 86° 64° (ENE) 02:48:20 145.825 MHz
Oscar 19 02 Sep 02:40:22 02:45:26 50° 100° (E) 02:50:26 437.125 CW, 437.150 USB
AO-Echo 02 Sep 02:49:37 02:53:35 27° 96° (E) 02:57:35 ?
Gurwin Techsat 1B 02 Sep 02:52:48 02:54:18 11° 90° (E) 02:55:47 435.225 FM
Oscar 16 02 Sep 03:15:37 03:20:48 70° 285° (WNW) 03:25:56 437.025 USB, Beacon 2401.1428
ITAMSAT 1 02 Sep 03:18:07 03:23:09 49° 100° (E) 03:28:09 435.822 SSB
SO-50 02 Sep 03:21:49 03:26:07 50° 116° (ESE) 03:30:31 436.795 FM
Uribyol 2 02 Sep 03:27:21 03:32:32 66° 102° (ESE) 03:37:42 436.500 FM
JAS-1B 02 Sep 03:33:25 03:39:48 60° 100° (E) 03:45:27 435.800 - 435.900 CW/SSB
TMSAT-1 02 Sep 03:40:17 03:44:39 26° 95° (E) 03:49:00 436.925 FM
AO-27 02 Sep 03:47:42 03:52:55 83° 285° (WNW) 03:58:06 436.795 MHz FM
Sapphire 02 Sep 03:52:34 03:56:40 22° 254° (WSW) 04:00:44 437.095 MHz 1200 baud AX-25 AFSK
OPAL 02 Sep 04:15:48 04:20:06 29° 66° (ENE) 04:24:28 ?
Oscar 19 02 Sep 04:20:54 04:24:20 18° 295° (WNW) 04:27:45 437.125 CW, 437.150 USB
PCSat 02 Sep 04:25:13 04:25:30 10° 259° (WSW) 04:25:47 145.825 MHz
AO-Echo 02 Sep 04:28:23 04:32:16 26° 291° (WNW) 04:36:12 ?
Gurwin Techsat 1B 02 Sep 04:29:27 04:34:46 75° 285° (WNW) 04:40:02 435.225 FM
ITAMSAT 1 02 Sep 04:58:44 05:02:13 19° 295° (WNW) 05:05:42 435.822 SSB
SO-50 02 Sep 05:03:57 05:06:58 18° 313° (NW) 05:10:03 436.795 FM
UOSAT-12 02 Sep 05:07:42 05:12:05 47° 115° (ESE) 05:16:35 437.025 FM, 437.400 FM
Uribyol 2 02 Sep 05:08:45 05:11:25 14° 297° (WNW) 05:14:05 436.500 FM
TMSAT-1 02 Sep 05:19:50 05:24:34 34° 290° (WNW) 05:29:18 436.925 FM
Uosat F 02 Sep 05:20:22 05:25:07 43° 99° (E) 05:29:51 435.120 FM
JAS-1B 02 Sep 05:25:33 05:29:42 18° 301° (WNW) 05:33:33 435.800 - 435.900 CW/SSB
AO-7 02 Sep 05:34:17 05:42:29 60° 104° (ESE) 05:50:36 29.400 - 29.500 MHz
OPAL 02 Sep 05:54:28 05:58:51 30° 261° (W) 06:03:20 ?
STRAND 1 02 Sep 06:05:50 06:08:15 14° 63° (ENE) 06:10:40 ?
Hamsat 02 Sep 06:25:12 06:28:12 18° 93° (E) 06:31:10 145.90 MHz
JAS-2 02 Sep 06:30:25 06:34:43 24° 96° (E) 06:39:18 435.800 - 435.900 CW/SSB, 435.910 FM
UOSAT-12 02 Sep 06:49:08 06:52:29 19° 312° (NW) 06:55:54 437.025 FM, 437.400 FM
Uosat F 02 Sep 07:00:02 07:03:34 20° 294° (WNW) 07:07:05 435.120 FM
Saudisat 1A 02 Sep 07:11:57 07:15:59 34° 54° (NE) 07:20:00 436.775 MHz
KITSAT 1 02 Sep 07:21:34 07:27:30 22° 42° (NE) 07:33:24 435.175 FM
RS-15 02 Sep 07:22:28 07:33:05 53° 111° (ESE) 07:43:29 29.354 - 29.394 USB, Beacon 29.352 USB
AO-7 02 Sep 07:27:58 07:34:42 29° 301° (WNW) 07:41:25 29.400 - 29.500 MHz
STRAND 1 02 Sep 07:41:46 07:46:50 67° 258° (WSW) 07:51:55 ?
Hamsat 02 Sep 08:00:20 08:04:13 33° 288° (WNW) 08:08:03 145.90 MHz
JAS-2 02 Sep 08:14:58 08:19:52 38° 289° (WNW) 08:25:09 435.800 - 435.900 CW/SSB, 435.910 FM
SO-67 02 Sep 08:39:05 08:42:32 74° 283° (WNW) 08:45:58 435.3500 MHz FM
Saudisat 1A 02 Sep 08:52:00 08:55:20 21° 249° (WSW) 08:58:39 436.775 MHz
